TimeEST,TemperatureF,Dew PointF,Humidity,Sea Level PressureIn,VisibilityMPH,Wind Direction,Wind SpeedMPH,Gust SpeedMPH,PrecipitationIn,Events,Conditions,WindDirDegrees,DateUTC
12:00 AM,49.5,36.0,60,30.09,-9999.0,South,23.0,-,N/A,,Unknown,170,2013-11-16 05:00:00
1:00 AM,49,37,52,30.10,,South,23.0,,,,,180,2013-11-16 06:00:00
1:00 AM,49.3,36.7,62,30.10,-9999.0,South,23.0,-,N/A,,Unknown,180,2013-11-16 06:00:00
2:00 AM,48.7,36.1,62,30.11,-9999.0,South,23.0,-,N/A,,Unknown,180,2013-11-16 07:00:00
3:00 AM,48.6,37.4,65,30.12,-9999.0,South,23.0,-,N/A,,Unknown,180,2013-11-16 08:00:00
4:00 AM,48.2,37.0,65,30.12,-9999.0,South,20.7,-,N/A,,Unknown,180,2013-11-16 09:00:00
5:00 AM,48.0,37.6,67,30.12,-9999.0,South,18.4,-,N/A,,Unknown,170,2013-11-16 10:00:00
6:00 AM,48.0,37.6,67,30.13,-9999.0,South,19.6,-,N/A,,Unknown,170,2013-11-16 11:00:00
7:00 AM,47,38,63,30.15,,SSE,20.7,,,,,160,2013-11-16 12:00:00
7:00 AM,47.5,38.3,70,30.15,-9999.0,SSE,20.7,-,N/A,,Unknown,160,2013-11-16 12:00:00
8:00 AM,47.7,40.5,76,30.19,-9999.0,South,17.3,-,N/A,,Unknown,170,2013-11-16 13:00:00
9:00 AM,47.8,40.5,76,30.19,-9999.0,SSE,17.3,-,N/A,,Unknown,160,2013-11-16 14:00:00
10:00 AM,48.4,40.8,75,30.17,-9999.0,SE,17.3,-,N/A,,Unknown,140,2013-11-16 15:00:00
11:00 AM,50.0,41.7,73,30.17,-9999.0,SE,17.3,-,N/A,,Unknown,130,2013-11-16 16:00:00
12:00 PM,50.9,44.1,77,30.15,-9999.0,ESE,11.5,-,N/A,,Unknown,110,2013-11-16 17:00:00
1:00 PM,52,44,68,30.12,,ESE,11.5,,,,,110,2013-11-16 18:00:00
1:00 PM,51.8,44.4,76,30.12,-9999.0,ESE,11.5,-,N/A,,Unknown,110,2013-11-16 18:00:00
2:00 PM,52.9,44.4,73,30.09,-9999.0,ESE,13.8,-,N/A,,Unknown,110,2013-11-16 19:00:00
3:00 PM,54.5,43.9,67,30.06,-9999.0,ESE,15.0,-,N/A,,Unknown,110,2013-11-16 20:00:00
4:00 PM,55.0,44.4,67,30.05,-9999.0,ESE,15.0,-,N/A,,Unknown,110,2013-11-16 21:00:00
5:00 PM,56.1,43.7,63,30.03,-9999.0,ESE,16.1,-,N/A,,Unknown,110,2013-11-16 22:00:00
6:00 PM,55.8,44.1,65,30.03,-9999.0,ESE,17.3,-,N/A,,Unknown,110,2013-11-16 23:00:00
7:00 PM,55,45,60,30.02,,ESE,17.3,,,,,120,2013-11-17 00:00:00
7:00 PM,55.2,45.0,68,30.02,-9999.0,ESE,17.3,-,N/A,,Unknown,120,2013-11-17 00:00:00
8:00 PM,55.6,45.1,68,29.99,-9999.0,SE,23.0,-,N/A,,Unknown,130,2013-11-17 01:00:00
9:00 PM,55.2,45.9,71,29.99,-9999.0,SE,23.0,-,N/A,,Unknown,140,2013-11-17 02:00:00
10:00 PM,55.0,45.3,70,29.96,-9999.0,SE,25.3,-,N/A,,Unknown,130,2013-11-17 03:00:00
11:00 PM,54.7,46.6,74,29.93,-9999.0,SE,21.9,-,N/A,,Unknown,130,2013-11-17 04:00:00